Simultaneous Nadir Overpasses (SNOs) Predictions

Prediction of SNOs between NOAA-19 and TERRA Satellite Orbit:

Table of predicted SNOs for the next 14.0 days since TLE Epoch: 1/23/2016
Index Date (NOAA-19) Time (NOAA-19) Lat,Lon (NOAA-19) SZA (NOAA-19 ) Date (TERRA) Time (TERRA) Lat,Lon (TERRA) SZA (TERRA ) Distance(km) Time Diff (sec)
1 01/24/2016 18:21:40 73.44, -90.50 92.56 01/24/2016 18:22:51 73.33, -89.50 92.47 33.96 71
2 01/24/2016 19:12:33 -73.04, 77.67 87.84 01/24/2016 19:12:24 -73.05, 77.56 87.84 3.65 9
3 01/26/2016 23:55:44 -73.14, 6.70 88.29 01/26/2016 23:56:39 -73.16, 6.72 88.26 2.96 55
4 01/27/2016 00:46:44 73.05, 174.14 91.62 01/27/2016 00:46:07 73.03, 174.09 91.59 3.40 37
5 01/29/2016 05:29:55 73.13, 103.22 91.12 01/29/2016 05:30:22 73.13, 103.23 91.13 0.35 27
6 01/29/2016 06:20:53 -73.03, -89.30 88.99 01/29/2016 06:19:52 -73.01, -89.38 89.01 3.28 61
7 01/31/2016 10:13:21 73.94, 30.52 91.33 01/31/2016 10:14:26 73.80, 33.57 91.22 95.26 65
8 01/31/2016 11:04:04 -73.14,-160.29 89.48 01/31/2016 11:04:07 -73.11,-160.26 89.51 3.17 3
9 01/31/2016 11:54:52 72.40, 8.55 89.80 01/31/2016 11:53:45 72.43, 6.09 89.80 82.85 67
10 02/02/2016 15:47:14 -73.20, 128.83 90.04 02/02/2016 15:48:22 -73.20, 128.85 90.04 0.60 68
11 02/02/2016 16:38:15 73.08, -63.67 89.84 02/02/2016 16:37:49 73.11, -63.69 89.86 2.95 26
12 02/04/2016 21:21:26 73.17,-134.61 89.28 02/04/2016 21:22:04 73.18,-134.60 89.29 1.83 38
